Year,Month,Day,Hour,Minute,Value (Times are PST for temperature in C)
2014,07,19,00,00,15.60
2014,07,19,00,01,15.60
2014,07,19,00,02,15.60
2014,07,19,00,03,15.60
2014,07,19,00,04,15.60
2014,07,19,00,05,15.60
2014,07,19,00,06,15.60
2014,07,19,00,07,15.60
2014,07,19,00,08,15.60
2014,07,19,00,09,15.60
2014,07,19,00,10,15.60
2014,07,19,00,11,15.60
2014,07,19,00,12,15.60
2014,07,19,00,13,15.60
2014,07,19,00,14,15.70
2014,07,19,00,15,15.70
2014,07,19,00,16,15.70
2014,07,19,00,17,15.70
2014,07,19,00,18,15.70
2014,07,19,00,19,15.80
2014,07,19,00,20,15.80
2014,07,19,00,21,15.80
2014,07,19,00,22,15.80
2014,07,19,00,23,15.80
2014,07,19,00,24,15.80
2014,07,19,00,25,15.80
2014,07,19,00,26,15.80
2014,07,19,00,27,15.80
2014,07,19,00,28,15.80
2014,07,19,00,29,15.80
2014,07,19,00,30,15.80
2014,07,19,00,31,15.80
2014,07,19,00,32,15.80
2014,07,19,00,33,15.80
2014,07,19,00,34,15.80
2014,07,19,00,35,15.70
2014,07,19,00,36,15.70
2014,07,19,00,37,15.70
2014,07,19,00,38,15.60
2014,07,19,00,39,15.60
2014,07,19,00,40,15.60
2014,07,19,00,41,15.60
2014,07,19,00,42,15.50
2014,07,19,00,43,15.50
2014,07,19,00,44,15.50
2014,07,19,00,45,15.40
2014,07,19,00,46,15.40
2014,07,19,00,47,15.40
2014,07,19,00,48,15.40
2014,07,19,00,49,15.30
2014,07,19,00,50,15.30
2014,07,19,00,51,15.30
2014,07,19,00,52,15.30
2014,07,19,00,53,15.30
2014,07,19,00,54,15.20
2014,07,19,00,55,15.20
2014,07,19,00,56,15.20
2014,07,19,00,57,15.20
2014,07,19,00,58,15.20
2014,07,19,00,59,15.20
2014,07,19,01,00,15.20
2014,07,19,01,01,15.20
2014,07,19,01,02,15.20
2014,07,19,01,03,15.20
2014,07,19,01,04,15.20
2014,07,19,01,05,15.20
2014,07,19,01,06,15.20
2014,07,19,01,07,15.20
2014,07,19,01,08,15.20
2014,07,19,01,09,15.20
2014,07,19,01,10,15.20
2014,07,19,01,11,15.20
2014,07,19,01,12,15.30
2014,07,19,01,13,15.30
2014,07,19,01,14,15.30
2014,07,19,01,15,15.30
2014,07,19,01,16,15.30
2014,07,19,01,17,15.30
2014,07,19,01,18,15.30
2014,07,19,01,19,15.30
2014,07,19,01,20,15.30
2014,07,19,01,21,15.30
2014,07,19,01,22,15.30
2014,07,19,01,23,15.40
2014,07,19,01,24,15.40
2014,07,19,01,25,15.30
2014,07,19,01,26,15.30
2014,07,19,01,27,15.30
2014,07,19,01,28,15.30
2014,07,19,01,29,15.30
2014,07,19,01,30,15.30
2014,07,19,01,31,15.30
2014,07,19,01,32,15.30
2014,07,19,01,33,15.30
2014,07,19,01,34,15.30
2014,07,19,01,35,15.30
2014,07,19,01,36,15.30
2014,07,19,01,37,15.20
2014,07,19,01,38,15.20
2014,07,19,01,39,15.20
2014,07,19,01,40,15.20
2014,07,19,01,41,15.20
2014,07,19,01,42,15.20
2014,07,19,01,43,15.20
2014,07,19,01,44,15.20
2014,07,19,01,45,15.20
2014,07,19,01,46,15.20
2014,07,19,01,47,15.20
2014,07,19,01,48,15.20
2014,07,19,01,49,15.20
2014,07,19,01,50,15.20
2014,07,19,01,51,15.10
2014,07,19,01,52,15.10
2014,07,19,01,53,15.10
2014,07,19,01,54,15.10
2014,07,19,01,55,15.10
2014,07,19,01,56,15.10
2014,07,19,01,57,15.00
2014,07,19,01,58,15.00
2014,07,19,01,59,14.90
2014,07,19,02,00,14.90
2014,07,19,02,01,14.90
2014,07,19,02,02,14.90
2014,07,19,02,03,14.90
2014,07,19,02,04,14.90
2014,07,19,02,05,14.90
2014,07,19,02,06,14.90
2014,07,19,02,07,14.90
2014,07,19,02,08,15.00
2014,07,19,02,09,15.00
2014,07,19,02,10,15.00
2014,07,19,02,11,15.10
2014,07,19,02,12,15.10
2014,07,19,02,13,15.10
2014,07,19,02,14,15.10
2014,07,19,02,15,15.10
2014,07,19,02,16,15.10
2014,07,19,02,17,15.10
2014,07,19,02,18,15.20
2014,07,19,02,19,15.20
2014,07,19,02,20,15.20
2014,07,19,02,21,15.20
2014,07,19,02,22,15.20
2014,07,19,02,23,15.30
2014,07,19,02,24,15.30
2014,07,19,02,25,15.30
2014,07,19,02,26,15.30
2014,07,19,02,27,15.30
2014,07,19,02,28,15.40
2014,07,19,02,29,15.40
2014,07,19,02,30,15.40
2014,07,19,02,31,15.40
2014,07,19,02,32,15.50
2014,07,19,02,33,15.50
2014,07,19,02,34,15.50
2014,07,19,02,35,15.60
2014,07,19,02,36,15.60
2014,07,19,02,37,15.60
2014,07,19,02,38,15.60
2014,07,19,02,39,15.60
2014,07,19,02,40,15.50
2014,07,19,02,41,15.50
2014,07,19,02,42,15.50
2014,07,19,02,43,15.50
2014,07,19,02,44,15.50
2014,07,19,02,45,15.50
2014,07,19,02,46,15.50
2014,07,19,02,47,15.50
2014,07,19,02,48,15.50
2014,07,19,02,49,15.50
2014,07,19,02,50,15.50
2014,07,19,02,51,15.50
2014,07,19,02,52,15.50
2014,07,19,02,53,15.50
2014,07,19,02,54,15.50
2014,07,19,02,55,15.50
2014,07,19,02,56,15.60
2014,07,19,02,57,15.60
2014,07,19,02,58,15.60
2014,07,19,02,59,15.60
2014,07,19,03,00,15.60
2014,07,19,03,01,15.60
2014,07,19,03,02,15.60
2014,07,19,03,03,15.70
2014,07,19,03,04,15.70
2014,07,19,03,05,15.70
2014,07,19,03,06,15.70
2014,07,19,03,07,15.70
2014,07,19,03,08,15.70
2014,07,19,03,09,15.60
2014,07,19,03,10,15.60
2014,07,19,03,11,15.60
2014,07,19,03,12,15.60
2014,07,19,03,13,15.60
2014,07,19,03,14,15.60
2014,07,19,03,15,15.50
2014,07,19,03,16,15.50
2014,07,19,03,17,15.40
2014,07,19,03,18,15.40
2014,07,19,03,19,15.40
2014,07,19,03,20,15.40
2014,07,19,03,21,15.30
2014,07,19,03,22,15.30
2014,07,19,03,23,15.30
2014,07,19,03,24,15.20
2014,07,19,03,25,15.20
2014,07,19,03,26,15.20
2014,07,19,03,27,15.20
2014,07,19,03,28,15.20
2014,07,19,03,29,15.10
2014,07,19,03,30,15.10
2014,07,19,03,31,15.10
2014,07,19,03,32,15.10
2014,07,19,03,33,15.10
2014,07,19,03,34,15.10
2014,07,19,03,35,15.10
2014,07,19,03,36,15.10
2014,07,19,03,37,15.10
2014,07,19,03,38,15.10
2014,07,19,03,39,15.10
2014,07,19,03,40,15.10
2014,07,19,03,41,15.10
2014,07,19,03,42,15.10
2014,07,19,03,43,15.10
2014,07,19,03,44,15.00
2014,07,19,03,45,15.00
2014,07,19,03,46,15.00
2014,07,19,03,47,15.00
2014,07,19,03,48,14.90
2014,07,19,03,49,14.90
2014,07,19,03,50,14.90
2014,07,19,03,51,14.90
2014,07,19,03,52,14.90
2014,07,19,03,53,14.90
2014,07,19,03,54,14.90
2014,07,19,03,55,14.90
2014,07,19,03,56,15.00
2014,07,19,03,57,15.00
2014,07,19,03,58,15.00
2014,07,19,03,59,15.00
2014,07,19,04,00,15.00
2014,07,19,04,01,15.00
2014,07,19,04,02,15.00
2014,07,19,04,03,15.00
2014,07,19,04,04,15.00
2014,07,19,04,05,15.00
2014,07,19,04,06,15.00
2014,07,19,04,07,15.00
2014,07,19,04,08,15.00
2014,07,19,04,09,15.00
2014,07,19,04,10,15.00
2014,07,19,04,11,15.10
2014,07,19,04,12,15.10
2014,07,19,04,13,15.10
2014,07,19,04,14,15.10
2014,07,19,04,15,15.10
2014,07,19,04,16,15.10
2014,07,19,04,17,15.20
2014,07,19,04,18,15.20
2014,07,19,04,19,15.20
2014,07,19,04,20,15.20
2014,07,19,04,21,15.20
2014,07,19,04,22,15.20
2014,07,19,04,23,15.20
2014,07,19,04,24,15.20
2014,07,19,04,25,15.30
2014,07,19,04,26,15.30
2014,07,19,04,27,15.30
2014,07,19,04,28,15.30
2014,07,19,04,29,15.30
2014,07,19,04,30,15.30
2014,07,19,04,31,15.40
2014,07,19,04,32,15.40
2014,07,19,04,33,15.40
2014,07,19,04,34,15.40
2014,07,19,04,35,15.40
2014,07,19,04,36,15.40
2014,07,19,04,37,15.40
2014,07,19,04,38,15.40
2014,07,19,04,39,15.40
2014,07,19,04,40,15.40
2014,07,19,04,41,15.40
2014,07,19,04,42,15.40
2014,07,19,04,43,15.40
2014,07,19,04,44,15.40
2014,07,19,04,45,15.40
2014,07,19,04,46,15.40
2014,07,19,04,47,15.40
2014,07,19,04,48,15.40
2014,07,19,04,49,15.40
2014,07,19,04,50,15.40
2014,07,19,04,51,15.40
2014,07,19,04,52,15.40
2014,07,19,04,53,15.40
2014,07,19,04,54,15.40
2014,07,19,04,55,15.40
2014,07,19,04,56,15.40
2014,07,19,04,57,15.40
2014,07,19,04,58,15.40
2014,07,19,04,59,15.40
2014,07,19,05,00,15.40
2014,07,19,05,01,15.40
2014,07,19,05,02,15.40
2014,07,19,05,03,15.40
2014,07,19,05,04,15.40
2014,07,19,05,05,15.40
2014,07,19,05,06,15.40
2014,07,19,05,07,15.40
2014,07,19,05,08,15.40
2014,07,19,05,09,15.40
2014,07,19,05,10,15.40
2014,07,19,05,11,15.50
2014,07,19,05,12,15.50
2014,07,19,05,13,15.50
2014,07,19,05,14,15.50
2014,07,19,05,15,15.50
2014,07,19,05,16,15.50
2014,07,19,05,17,15.50
2014,07,19,05,18,15.50
2014,07,19,05,19,15.50
2014,07,19,05,20,15.50
2014,07,19,05,21,15.60
2014,07,19,05,22,15.60
2014,07,19,05,23,15.60
2014,07,19,05,24,15.60
2014,07,19,05,25,15.60
2014,07,19,05,26,15.60
2014,07,19,05,27,15.60
2014,07,19,05,28,15.70
2014,07,19,05,29,15.70
2014,07,19,05,30,15.70
2014,07,19,05,31,15.70
2014,07,19,05,32,15.80
2014,07,19,05,33,15.80
2014,07,19,05,34,15.80
2014,07,19,05,35,15.90
2014,07,19,05,36,15.90
2014,07,19,05,37,16.00
2014,07,19,05,38,16.00
2014,07,19,05,39,16.10
2014,07,19,05,40,16.10
2014,07,19,05,41,16.10
2014,07,19,05,42,16.20
2014,07,19,05,43,16.20
2014,07,19,05,44,16.20
2014,07,19,05,45,16.20
2014,07,19,05,46,16.20
2014,07,19,05,47,16.20
2014,07,19,05,48,16.20
2014,07,19,05,49,16.20
2014,07,19,05,50,16.20
2014,07,19,05,51,16.20
2014,07,19,05,52,16.20
2014,07,19,05,53,16.20
2014,07,19,05,54,16.20
2014,07,19,05,55,16.20
2014,07,19,05,56,16.20
2014,07,19,05,57,16.20
2014,07,19,05,58,16.10
2014,07,19,05,59,16.10
2014,07,19,06,00,16.10
2014,07,19,06,01,16.10
2014,07,19,06,02,16.10
2014,07,19,06,03,16.10
2014,07,19,06,04,16.00
2014,07,19,06,05,16.00
2014,07,19,06,06,16.00
2014,07,19,06,07,16.00
2014,07,19,06,08,16.00
2014,07,19,06,09,16.00
2014,07,19,06,10,15.90
2014,07,19,06,11,15.90
2014,07,19,06,12,15.90
2014,07,19,06,13,15.90
2014,07,19,06,14,15.90
2014,07,19,06,15,15.90
2014,07,19,06,16,15.90
2014,07,19,06,17,15.90
2014,07,19,06,18,15.80
2014,07,19,06,19,15.80
2014,07,19,06,20,15.80
2014,07,19,06,21,15.80
2014,07,19,06,22,15.80
2014,07,19,06,23,15.80
2014,07,19,06,24,15.80
2014,07,19,06,25,15.80
2014,07,19,06,26,15.80
2014,07,19,06,27,15.80
2014,07,19,06,28,15.80
2014,07,19,06,29,15.80
2014,07,19,06,30,15.80
2014,07,19,06,31,15.80
2014,07,19,06,32,15.80
2014,07,19,06,33,15.80
2014,07,19,06,34,15.80
2014,07,19,06,35,15.80
2014,07,19,06,36,15.80
2014,07,19,06,37,15.80
2014,07,19,06,38,15.80
2014,07,19,06,39,15.80
2014,07,19,06,40,15.80
2014,07,19,06,41,15.80
2014,07,19,06,42,15.80
2014,07,19,06,43,15.80
2014,07,19,06,44,15.80
2014,07,19,06,45,15.80
2014,07,19,06,46,15.90
2014,07,19,06,47,15.90
2014,07,19,06,48,15.90
2014,07,19,06,49,15.90
2014,07,19,06,50,15.90
2014,07,19,06,51,15.90
2014,07,19,06,52,15.90
2014,07,19,06,53,16.00
2014,07,19,06,54,16.00
2014,07,19,06,55,16.00
2014,07,19,06,56,16.10
2014,07,19,06,57,16.10
2014,07,19,06,58,16.10
2014,07,19,06,59,16.10
2014,07,19,07,00,16.10
2014,07,19,07,01,16.10
2014,07,19,07,02,16.10
2014,07,19,07,03,16.10
2014,07,19,07,04,16.20
2014,07,19,07,05,16.20
2014,07,19,07,06,16.20
2014,07,19,07,07,16.20
2014,07,19,07,08,16.20
2014,07,19,07,09,16.20
2014,07,19,07,10,16.20
2014,07,19,07,11,16.20
2014,07,19,07,12,16.20
2014,07,19,07,13,16.20
2014,07,19,07,14,16.20
2014,07,19,07,15,16.20
2014,07,19,07,16,16.20
2014,07,19,07,17,16.20
2014,07,19,07,18,16.20
2014,07,19,07,19,16.30
2014,07,19,07,20,16.30
2014,07,19,07,21,16.30
2014,07,19,07,22,16.30
2014,07,19,07,23,16.30
2014,07,19,07,24,16.30
2014,07,19,07,25,16.30
2014,07,19,07,26,16.30
2014,07,19,07,27,16.30
2014,07,19,07,28,16.30
2014,07,19,07,29,16.30
2014,07,19,07,30,16.30
2014,07,19,07,31,16.30
2014,07,19,07,32,16.30
2014,07,19,07,33,16.30
2014,07,19,07,34,16.30
2014,07,19,07,35,16.30
2014,07,19,07,36,16.30
2014,07,19,07,37,16.30
2014,07,19,07,38,16.30
2014,07,19,07,39,16.30
2014,07,19,07,40,16.30
2014,07,19,07,41,16.30
2014,07,19,07,42,16.30
2014,07,19,07,43,16.30
2014,07,19,07,44,16.30
2014,07,19,07,45,16.30
2014,07,19,07,46,16.30
2014,07,19,07,47,16.30
2014,07,19,07,48,16.30
2014,07,19,07,49,16.30
2014,07,19,07,50,16.40
2014,07,19,07,51,16.40
2014,07,19,07,52,16.40
2014,07,19,07,53,16.40
2014,07,19,07,54,16.40
2014,07,19,07,55,16.40
2014,07,19,07,56,16.50
2014,07,19,07,57,16.50
2014,07,19,07,58,16.60
2014,07,19,07,59,16.60
2014,07,19,08,00,16.60
2014,07,19,08,01,16.60
2014,07,19,08,02,16.70
2014,07,19,08,03,16.70
2014,07,19,08,04,16.70
2014,07,19,08,05,16.80
2014,07,19,08,06,16.80
2014,07,19,08,07,16.80
2014,07,19,08,08,16.80
2014,07,19,08,09,16.80
2014,07,19,08,10,16.80
2014,07,19,08,11,16.80
2014,07,19,08,12,16.80
2014,07,19,08,13,16.80
2014,07,19,08,14,16.80
2014,07,19,08,15,16.80
2014,07,19,08,16,16.80
2014,07,19,08,17,16.90
2014,07,19,08,18,16.90
2014,07,19,08,19,16.90
2014,07,19,08,20,16.90
2014,07,19,08,21,16.90
2014,07,19,08,22,16.90
2014,07,19,08,23,16.90
2014,07,19,08,24,17.00
2014,07,19,08,25,17.00
2014,07,19,08,26,17.00
2014,07,19,08,27,17.10
2014,07,19,08,28,17.10
2014,07,19,08,29,17.10
2014,07,19,08,30,17.10
2014,07,19,08,31,17.20
2014,07,19,08,32,17.20
2014,07,19,08,33,17.20
2014,07,19,08,34,17.20
2014,07,19,08,35,17.20
2014,07,19,08,36,17.30
2014,07,19,08,37,17.30
2014,07,19,08,38,17.30
2014,07,19,08,39,17.30
2014,07,19,08,40,17.30
2014,07,19,08,41,17.40
2014,07,19,08,42,17.30
2014,07,19,08,43,17.40
2014,07,19,08,44,17.40
2014,07,19,08,45,17.40
2014,07,19,08,46,17.40
2014,07,19,08,47,17.40
2014,07,19,08,48,17.40
2014,07,19,08,49,17.50
2014,07,19,08,50,17.50
2014,07,19,08,51,17.50
2014,07,19,08,52,17.60
2014,07,19,08,53,17.60
2014,07,19,08,54,17.60
2014,07,19,08,55,17.70
2014,07,19,08,56,17.70
2014,07,19,08,57,17.70
2014,07,19,08,58,17.80
2014,07,19,08,59,17.80
2014,07,19,09,00,17.80
2014,07,19,09,01,17.80
2014,07,19,09,02,17.80
2014,07,19,09,03,17.80
2014,07,19,09,04,17.80
2014,07,19,09,05,17.70
2014,07,19,09,06,17.80
2014,07,19,09,07,17.70
2014,07,19,09,08,17.70
2014,07,19,09,09,17.70
2014,07,19,09,10,17.70
2014,07,19,09,11,17.70
2014,07,19,09,12,17.70
2014,07,19,09,13,17.70
2014,07,19,09,14,17.70
2014,07,19,09,15,17.80
2014,07,19,09,16,17.80
2014,07,19,09,17,17.90
2014,07,19,09,18,17.90
2014,07,19,09,19,18.00
2014,07,19,09,20,18.00
2014,07,19,09,21,18.00
2014,07,19,09,22,18.00
2014,07,19,09,23,18.00
2014,07,19,09,24,18.00
2014,07,19,09,25,17.90
2014,07,19,09,26,17.90
2014,07,19,09,27,17.90
2014,07,19,09,28,17.90
2014,07,19,09,29,17.90
2014,07,19,09,30,17.90
2014,07,19,09,31,17.90
2014,07,19,09,32,17.90
2014,07,19,09,33,17.90
2014,07,19,09,34,17.90
2014,07,19,09,35,17.90
2014,07,19,09,36,17.90
2014,07,19,09,37,17.90
2014,07,19,09,38,18.00
2014,07,19,09,39,18.00
2014,07,19,09,40,18.00
2014,07,19,09,41,18.00
2014,07,19,09,42,18.00
2014,07,19,09,43,18.00
2014,07,19,09,44,18.00
2014,07,19,09,45,18.00
2014,07,19,09,46,18.00
2014,07,19,09,47,18.00
2014,07,19,09,48,18.00
2014,07,19,09,49,18.00
2014,07,19,09,50,18.10
2014,07,19,09,51,18.10
2014,07,19,09,52,18.10
2014,07,19,09,53,18.20
2014,07,19,09,54,18.20
2014,07,19,09,55,18.20
2014,07,19,09,56,18.20
2014,07,19,09,57,18.20
2014,07,19,09,58,18.20
2014,07,19,09,59,18.20
2014,07,19,10,00,18.20
2014,07,19,10,01,18.30
2014,07,19,10,02,18.30
2014,07,19,10,03,18.30
2014,07,19,10,04,18.30
2014,07,19,10,05,18.30
2014,07,19,10,06,18.30
2014,07,19,10,07,18.30
2014,07,19,10,08,18.40
2014,07,19,10,09,18.40
2014,07,19,10,10,18.40
2014,07,19,10,11,18.40
2014,07,19,10,12,18.40
2014,07,19,10,13,18.40
2014,07,19,10,14,18.40
2014,07,19,10,15,18.40
2014,07,19,10,16,18.40
2014,07,19,10,17,18.50
2014,07,19,10,18,18.50
2014,07,19,10,19,18.60
2014,07,19,10,20,18.60
2014,07,19,10,21,18.70
2014,07,19,10,22,18.70
2014,07,19,10,23,18.70
2014,07,19,10,24,18.80
2014,07,19,10,25,18.80
2014,07,19,10,26,18.80
2014,07,19,10,27,18.80
2014,07,19,10,28,18.80
2014,07,19,10,29,18.80
2014,07,19,10,30,18.80
2014,07,19,10,31,18.80
2014,07,19,10,32,18.80
2014,07,19,10,33,18.80
2014,07,19,10,34,18.90
2014,07,19,10,35,18.90
2014,07,19,10,36,19.00
2014,07,19,10,37,19.00
2014,07,19,10,38,19.10
2014,07,19,10,39,19.10
2014,07,19,10,40,19.10
2014,07,19,10,41,19.10
2014,07,19,10,42,19.10
2014,07,19,10,43,19.00
2014,07,19,10,44,19.00
2014,07,19,10,45,18.90
2014,07,19,10,46,18.90
2014,07,19,10,47,18.90
2014,07,19,10,48,18.90
2014,07,19,10,49,18.90
2014,07,19,10,50,19.00
2014,07,19,10,51,19.00
2014,07,19,10,52,19.00
2014,07,19,10,53,19.10
2014,07,19,10,54,19.10
2014,07,19,10,55,19.10
2014,07,19,10,56,19.20
2014,07,19,10,57,19.20
2014,07,19,10,58,19.30
2014,07,19,10,59,19.40
2014,07,19,11,00,19.50
2014,07,19,11,01,19.50
2014,07,19,11,02,19.60
2014,07,19,11,03,19.60
2014,07,19,11,04,19.60
2014,07,19,11,05,19.60
2014,07,19,11,06,19.60
2014,07,19,11,07,19.60
2014,07,19,11,08,19.60
2014,07,19,11,09,19.60
2014,07,19,11,10,19.60
2014,07,19,11,11,19.60
2014,07,19,11,12,19.60
2014,07,19,11,13,19.60
2014,07,19,11,14,19.70
2014,07,19,11,15,19.70
2014,07,19,11,16,19.70
2014,07,19,11,17,19.80
2014,07,19,11,18,19.80
2014,07,19,11,19,19.80
2014,07,19,11,20,19.90
2014,07,19,11,21,19.90
2014,07,19,11,22,19.90
2014,07,19,11,23,19.90
2014,07,19,11,24,20.00
2014,07,19,11,25,19.90
2014,07,19,11,26,19.90
2014,07,19,11,27,19.80
2014,07,19,11,28,19.80
2014,07,19,11,29,19.90
2014,07,19,11,30,20.00
2014,07,19,11,31,20.10
2014,07,19,11,32,20.10
2014,07,19,11,33,20.00
2014,07,19,11,34,20.00
2014,07,19,11,35,20.00
2014,07,19,11,36,20.00
2014,07,19,11,37,20.10
2014,07,19,11,38,20.20
2014,07,19,11,39,20.20
2014,07,19,11,40,20.20
2014,07,19,11,41,20.20
2014,07,19,11,42,20.20
2014,07,19,11,43,20.20
2014,07,19,11,44,20.20
2014,07,19,11,45,20.20
2014,07,19,11,46,20.20
2014,07,19,11,47,20.20
2014,07,19,11,48,20.20
2014,07,19,11,49,20.20
2014,07,19,11,50,20.20
2014,07,19,11,51,20.30
2014,07,19,11,52,20.40
2014,07,19,11,53,20.40
2014,07,19,11,54,20.50
2014,07,19,11,55,20.50
2014,07,19,11,56,20.60
2014,07,19,11,57,20.60
2014,07,19,11,58,20.70
2014,07,19,11,59,20.70
2014,07,19,12,00,20.70
2014,07,19,12,01,20.80
2014,07,19,12,02,20.80
2014,07,19,12,03,20.90
2014,07,19,12,04,20.90
2014,07,19,12,05,20.90
2014,07,19,12,06,20.90
2014,07,19,12,07,20.90
2014,07,19,12,08,21.00
2014,07,19,12,09,21.00
2014,07,19,12,10,21.10
2014,07,19,12,11,21.00
2014,07,19,12,12,21.00
2014,07,19,12,13,21.00
2014,07,19,12,14,21.00
2014,07,19,12,15,21.10
2014,07,19,12,16,21.10
2014,07,19,12,17,21.20
2014,07,19,12,18,21.20
2014,07,19,12,19,21.30
2014,07,19,12,20,21.30
2014,07,19,12,21,21.30
2014,07,19,12,22,21.30
2014,07,19,12,23,21.30
2014,07,19,12,24,21.30
2014,07,19,12,25,21.40
2014,07,19,12,26,21.40
2014,07,19,12,27,21.50
2014,07,19,12,28,21.60
2014,07,19,12,29,21.70
2014,07,19,12,30,21.80
2014,07,19,12,31,21.90
2014,07,19,12,32,22.00
2014,07,19,12,33,22.00
2014,07,19,12,34,22.10
2014,07,19,12,35,22.20
2014,07,19,12,36,22.20
2014,07,19,12,37,22.30
2014,07,19,12,38,22.30
2014,07,19,12,39,22.30
2014,07,19,12,40,22.30
2014,07,19,12,41,22.30
2014,07,19,12,42,22.30
2014,07,19,12,43,22.30
2014,07,19,12,44,22.20
2014,07,19,12,45,22.20
2014,07,19,12,46,22.20
2014,07,19,12,47,22.20
2014,07,19,12,48,22.20
2014,07,19,12,49,22.20
2014,07,19,12,50,22.20
2014,07,19,12,51,22.20
2014,07,19,12,52,22.10
2014,07,19,12,53,22.10
2014,07,19,12,54,22.10
2014,07,19,12,55,22.20
2014,07,19,12,56,22.20
2014,07,19,12,57,22.30
2014,07,19,12,58,22.40
2014,07,19,12,59,22.40
2014,07,19,13,00,22.40
2014,07,19,13,01,22.50
2014,07,19,13,02,22.50
2014,07,19,13,03,22.60
2014,07,19,13,04,22.60
2014,07,19,13,05,22.70
2014,07,19,13,06,22.80
2014,07,19,13,07,22.80
2014,07,19,13,08,22.80
2014,07,19,13,09,22.80
2014,07,19,13,10,22.60
2014,07,19,13,11,22.50
2014,07,19,13,12,22.40
2014,07,19,13,13,22.30
2014,07,19,13,14,22.40
2014,07,19,13,15,22.50
2014,07,19,13,16,22.50
2014,07,19,13,17,22.50
2014,07,19,13,18,22.50
2014,07,19,13,19,22.60
2014,07,19,13,20,22.60
2014,07,19,13,21,22.60
2014,07,19,13,22,22.60
2014,07,19,13,23,22.60
2014,07,19,13,24,22.60
2014,07,19,13,25,22.60
2014,07,19,13,26,22.60
2014,07,19,13,27,22.70
2014,07,19,13,28,22.70
2014,07,19,13,29,22.80
2014,07,19,13,30,22.80
2014,07,19,13,31,22.90
2014,07,19,13,32,23.00
2014,07,19,13,33,23.00
2014,07,19,13,34,23.00
2014,07,19,13,35,23.00
2014,07,19,13,36,23.00
2014,07,19,13,37,23.10
2014,07,19,13,38,23.10
2014,07,19,13,39,23.10
2014,07,19,13,40,23.20
2014,07,19,13,41,23.20
2014,07,19,13,42,23.30
2014,07,19,13,43,23.30
2014,07,19,13,44,23.30
2014,07,19,13,45,23.30
2014,07,19,13,46,23.20
2014,07,19,13,47,23.20
2014,07,19,13,48,23.30
2014,07,19,13,49,23.50
2014,07,19,13,50,23.60
2014,07,19,13,51,23.70
2014,07,19,13,52,23.80
2014,07,19,13,53,23.80
2014,07,19,13,54,23.80
2014,07,19,13,55,23.90
2014,07,19,13,56,23.90
2014,07,19,13,57,24.00
2014,07,19,13,58,24.00
2014,07,19,13,59,24.00
2014,07,19,14,00,24.00
2014,07,19,14,01,24.10
2014,07,19,14,02,24.10
2014,07,19,14,03,24.20
2014,07,19,14,04,24.20
2014,07,19,14,05,24.30
2014,07,19,14,06,24.30
2014,07,19,14,07,24.30
2014,07,19,14,08,24.30
2014,07,19,14,09,24.20
2014,07,19,14,10,24.20
2014,07,19,14,11,24.20
2014,07,19,14,12,24.20
2014,07,19,14,13,24.20
2014,07,19,14,14,24.20
2014,07,19,14,15,24.30
2014,07,19,14,16,24.40
2014,07,19,14,17,24.50
2014,07,19,14,18,24.60
2014,07,19,14,19,24.60
2014,07,19,14,20,24.60
2014,07,19,14,21,24.70
2014,07,19,14,22,24.60
2014,07,19,14,23,24.50
2014,07,19,14,24,24.40
2014,07,19,14,25,24.40
2014,07,19,14,26,24.40
2014,07,19,14,27,24.40
2014,07,19,14,28,24.30
2014,07,19,14,29,24.20
2014,07,19,14,30,24.20
2014,07,19,14,31,24.20
2014,07,19,14,32,24.20
2014,07,19,14,33,24.30
2014,07,19,14,34,24.30
2014,07,19,14,35,24.30
2014,07,19,14,36,24.40
2014,07,19,14,37,24.40
2014,07,19,14,38,24.40
2014,07,19,14,39,24.50
2014,07,19,14,40,24.50
2014,07,19,14,41,24.60
2014,07,19,14,42,24.60
2014,07,19,14,43,24.70
2014,07,19,14,44,24.70
2014,07,19,14,45,24.80
2014,07,19,14,46,24.90
2014,07,19,14,47,25.00
2014,07,19,14,48,25.00
2014,07,19,14,49,25.10
2014,07,19,14,50,25.10
2014,07,19,14,51,25.20
2014,07,19,14,52,25.20
2014,07,19,14,53,25.30
2014,07,19,14,54,25.30
2014,07,19,14,55,25.30
2014,07,19,14,56,25.40
2014,07,19,14,57,25.40
2014,07,19,14,58,25.50
2014,07,19,14,59,25.50
2014,07,19,15,00,25.60
2014,07,19,15,01,25.60
2014,07,19,15,02,25.50
2014,07,19,15,03,25.40
2014,07,19,15,04,25.20
2014,07,19,15,05,25.00
2014,07,19,15,06,24.80
2014,07,19,15,07,24.80
2014,07,19,15,08,24.90
2014,07,19,15,09,25.00
2014,07,19,15,10,25.00
2014,07,19,15,11,24.90
2014,07,19,15,12,24.90
2014,07,19,15,13,24.90
2014,07,19,15,14,25.00
2014,07,19,15,15,25.00
2014,07,19,15,16,25.00
2014,07,19,15,17,25.00
2014,07,19,15,18,24.90
2014,07,19,15,19,24.90
2014,07,19,15,20,24.90
2014,07,19,15,21,24.80
2014,07,19,15,22,24.70
2014,07,19,15,23,24.70
2014,07,19,15,24,24.70
2014,07,19,15,25,24.70
2014,07,19,15,26,24.70
2014,07,19,15,27,24.70
2014,07,19,15,28,24.70
2014,07,19,15,29,24.70
2014,07,19,15,30,24.60
2014,07,19,15,31,24.60
2014,07,19,15,32,24.60
2014,07,19,15,33,24.60
2014,07,19,15,34,24.50
2014,07,19,15,35,24.50
2014,07,19,15,36,24.50
2014,07,19,15,37,24.40
2014,07,19,15,38,24.40
2014,07,19,15,39,24.40
2014,07,19,15,40,24.40
2014,07,19,15,41,24.50
2014,07,19,15,42,24.50
2014,07,19,15,43,24.50
2014,07,19,15,44,24.50
2014,07,19,15,45,24.50
2014,07,19,15,46,24.50
2014,07,19,15,47,24.60
2014,07,19,15,48,24.60
2014,07,19,15,49,24.70
2014,07,19,15,50,24.80
2014,07,19,15,51,25.00
2014,07,19,15,52,25.20
2014,07,19,15,53,25.40
2014,07,19,15,54,25.50
2014,07,19,15,55,25.60
2014,07,19,15,56,25.70
2014,07,19,15,57,25.70
2014,07,19,15,58,25.70
2014,07,19,15,59,25.80
2014,07,19,16,00,25.80
2014,07,19,16,01,25.90
2014,07,19,16,02,25.90
2014,07,19,16,03,26.00
2014,07,19,16,04,26.10
2014,07,19,16,05,26.10
2014,07,19,16,06,26.10
2014,07,19,16,07,26.10
2014,07,19,16,08,26.20
2014,07,19,16,09,26.20
2014,07,19,16,10,26.30
2014,07,19,16,11,26.30
2014,07,19,16,12,26.30
2014,07,19,16,13,26.20
2014,07,19,16,14,26.10
2014,07,19,16,15,25.90
2014,07,19,16,16,25.70
2014,07,19,16,17,25.60
2014,07,19,16,18,25.50
2014,07,19,16,19,25.30
2014,07,19,16,20,25.20
2014,07,19,16,21,25.10
2014,07,19,16,22,25.00
2014,07,19,16,23,24.90
2014,07,19,16,24,24.80
2014,07,19,16,25,24.80
2014,07,19,16,26,24.70
2014,07,19,16,27,24.70
2014,07,19,16,28,24.60
2014,07,19,16,29,24.60
2014,07,19,16,30,24.60
2014,07,19,16,31,24.60
2014,07,19,16,32,24.60
2014,07,19,16,33,24.50
2014,07,19,16,34,24.50
2014,07,19,16,35,24.50
2014,07,19,16,36,24.50
2014,07,19,16,37,24.50
2014,07,19,16,38,24.50
2014,07,19,16,39,24.60
2014,07,19,16,40,24.60
2014,07,19,16,41,24.70
2014,07,19,16,42,24.70
2014,07,19,16,43,24.80
2014,07,19,16,44,24.90
2014,07,19,16,45,24.90
2014,07,19,16,46,25.00
2014,07,19,16,47,25.00
2014,07,19,16,48,25.10
2014,07,19,16,49,25.10
2014,07,19,16,50,25.20
2014,07,19,16,51,25.20
2014,07,19,16,52,25.30
2014,07,19,16,53,25.30
2014,07,19,16,54,25.30
2014,07,19,16,55,25.30
2014,07,19,16,56,25.30
2014,07,19,16,57,25.30
2014,07,19,16,58,25.20
2014,07,19,16,59,25.20
2014,07,19,17,00,25.20
2014,07,19,17,01,25.10
2014,07,19,17,02,25.00
2014,07,19,17,03,24.90
2014,07,19,17,04,24.80
2014,07,19,17,05,24.70
2014,07,19,17,06,24.70
2014,07,19,17,07,24.70
2014,07,19,17,08,24.60
2014,07,19,17,09,24.60
2014,07,19,17,10,24.60
2014,07,19,17,11,24.60
2014,07,19,17,12,24.60
2014,07,19,17,13,24.60
2014,07,19,17,14,24.50
2014,07,19,17,15,24.40
2014,07,19,17,16,24.30
2014,07,19,17,17,24.30
2014,07,19,17,18,24.20
2014,07,19,17,19,24.20